Weather in Yoshkir

Uzbekistan     40°06′32″N   65°24′11″E
temp.,
°C
wind,
m/s
gust,
m/s
humid.,
%
clouds,
%
prec.,
mm/h
press.,
hPa
HPBL,
m
8 march, mon
mon823:00+5se22713 0.0 101922
02:00+5se237230 0.0 102022
05:00+5se227665 0.0 102023
08:00+6se2372100 0.0 102241
11:00+11ssw345451 0.0 1022684
14:00+14ssw44443 0.0 10201229
17:00+14ssw223643 0.0 10191312
20:00+11sse1252100 0.0 102022
9 march, tue
tue923:00+10ese3351100 0.0 102022
02:00+9ese445710 0.0 101741
05:00+8e45676 0.0 101677
08:00+8e576598 0.0 1015125
11:00+14e564599 0.0 1013279
14:00+19e6730100 0.0 1010473
17:00+19ese3432100 0.0 1009242
20:00+15se6846100 0.0 1010179
10 march, wed
wed1023:00+13se2357100 0.1 101023
02:00+11sw125797 0.1 101023
05:00+10s336386 0.1 101131
08:00+10wnw346185 0.0 101472
11:00+12nw9104692 0.0 1016515
14:00+12nnw8943100 0.0 1016726
17:00+11nw6752100 0.0 1016770
20:00+8nnw8857100 0.1 1018585
11 march, thu
thu1123:00+7ssw1168100 0.3 1020448
02:00+6nw3565100 0.0 1021317
05:00+4w117066 0.0 102222
08:00+5s11620 0.0 102474
11:00+9s22446 0.0 1023883
14:00+12s33340 0.0 10201164
17:00+13ssw33290 0.0 10171108
20:00+10ne124010 0.0 101722
12 march, fri
fri1223:00+9e344512 0.0 101554
02:00+7e596125 0.0 1012157
05:00+7e6106456 0.0 1010172
08:00+8ese61154100 0.0 1008221
11:00+15ese6830100 0.0 1005482
14:00+17s81427100 0.0 10031242
17:00+20sw9152999 0.0 10012881
20:00+16wsw101540100 0.0 1003556